Location: Tel Aviv
(32.0670°N, 34.7670°E)
Time: 11:55:11
(UTC+02:00)

Vanguard 1 - Visible Passes

Search period start: 19 January 2022 00:00
Search period end: 29 January 2022 00:00
Orbit: 652 x 3830 km, 34.2° (Epoch: 18 January)

Date Brightness Start Highest point End Pass type
(mag) Time Alt. Az. Time Alt. Az. Time Alt. Az.
19 Jan 13.3 19:36:02 10° SW 19:39:09 12° SSW 19:42:50 10° S visible
20 Jan 12.1 17:33:36 10° W 17:38:21 27° SSW 17:45:24 10° SSE visible
21 Jan 12.6 17:55:19 10° WSW 17:59:28 19° SSW 18:05:06 10° SSE visible
22 Jan 13.1 18:18:14 10° SW 18:20:38 12° SSW 18:23:27 10° S visible
25 Jan 14.2 05:12:22 10° SSE 05:17:05 12° SSE 05:21:08 10° SE visible
26 Jan 13.9 05:28:59 10° S 05:38:37 18° SSE 05:45:40 10° ESE visible
27 Jan 13.6 05:47:42 10° SSW 06:00:03 25° SSE 06:08:11 10° E visible
28 Jan 14.3 03:54:36 10° SSE 03:56:58 10° SE 03:59:10 10° SE visible
28 Jan 13.2 06:07:19 10° SSW 06:21:24 33° SSE 06:29:58 10° E visible
